User: anonymous   Login
Location: Unspecified
(0.0000°N, 0.0000°E)
Time: 00:37:14
(UTC+00:00)
Language:

SN 39 - Orbit

View from above orbital plane
View from above orbital plane
View from above satellite
View from above satellite

Ground track
Ground track

The orbit data is extracted from the following two-line orbital elements,

1   671U 63038C   18265.58725731 +.00000042 +00000-0 +56055-4 0  9995
2   671 090.0676 328.2904 0041208 158.6730 325.9396 13.44809302695480
Epoch (UTC): 22 September 2018 14:05:39
Eccentricity: 0.0041208
inclination: 90.0676°
perigee height: 1060 km
apogee height: 1122 km
right ascension of ascending node: 328.2904°
argument of perigee: 158.6730°
revolutions per day: 13.44809302
mean anomaly at epoch: 325.9396°
orbit number at epoch: 69548

The dashed part of the orbit path shows where the satellite is in the earth's shadow,  

DLR